ONEWEB-0083 (45435 NORAD) Tracking and Keplerian Element Data

This shows tracking and keplerian element data for the satellite.

Feedback or suggestion? Click here.




ElementValue
Catalog45435
NameONEWEB-0083
Epoch Orbit89
Epoch Day87.56625049
Epoch Year2020
RAAN136.8371
Inclination87.4009
Eccentricity0.0021293
Argument of Perigee287.8519
Mean Anonmoly72.0412
Mean Motion15.37057911
Decay Rate2.139E-05
L11 45435U 20020M 20087.56625049 .00002139 00000-0 57447-4 0 9995
L22 45435 87.4009 136.8371 0021293 287.8519 72.0412 15.37057911 899

Live tracking and technical data element details for ONEWEB-0083 (NORAD 45435). ONEWEB-0083 can be tracked NOW for your location showing map with azimuth and elevation plus other details from your city location.

Track the satellite on the map from your city or location and see movement details for azimuth, elevation, latitude, longitude, range, height, and movement on the map or in text.







IsCatalogInMostPopularTable: catalog: 45435, numindb: -1

Insert: records affected: 1


GetName: 45435 ONEWEB-0083

Hit Count: inserted at: Tue, 31 Mar 2020 13:16:04 GMT